Вернуться в каталог

ANSER-FLW1

АктивенНаукаPO
NORAD 58019·PAYLOAD·🇪🇸 Spain

Запущен Oct 9, 2023 с Guiana Space Centre

Loading…

Ближайшие Пролёты (ближайшие 24 часа)

TLE

СвежийSource: Space-Track

Эпоха: Sep 14, 2026, 12:57 UTC

1 58019U 23155D   26257.54013200  .00054031  00000-0  68810-3 0  9995
2 58019  97.5503 351.9639 0002468 114.4950 245.6564 15.59172934162821

Отслеживайте ANSER-FLW1 в реальном времени с AllMySat

Download on the App Store